When you browse on this site, cookies collect data to enhance your experience and personalize the content and advertising you see.
Visit our Privacy Policy to learn more. By continuing to use the site, you agree to this use of cookies and data.
  • en France
  • Liste des pays
  • À 7 jours
  • Température de l'eau
  • Carte météo
  • Widgets météo
  • user-avatar
    Se connecter

    Météo par heure à Karlsruhe

    Ce jour, 26 Février, Mercredi

    Heure Température Précipitation Vent Pression Humidité
    00:00 +3°C° 0.3 mm 5 m/s 739 mmHg 85%
    01:00 +4°C° 0 mm 4 m/s 739 mmHg 87%
    02:00 +3°C° 0.8 mm 5 m/s 739 mmHg 84%
    03:00 +2°C° 0.8 mm 6 m/s 739 mmHg 82%
    04:00 +2°C° 0.8 mm 6 m/s 739 mmHg 80%
    05:00 +2°C° 0.1 mm 7 m/s 739 mmHg 80%
    06:00 0°C° 0.1 mm 7 m/s 739 mmHg 80%
    07:00 0°C° 0.1 mm 7 m/s 739 mmHg 80%
    08:00 0°C° 0.1 mm 7 m/s 739 mmHg 80%
    09:00 0°C° 0.1 mm 7 m/s 739 mmHg 81%
    10:00 0°C° 0.1 mm 8 m/s 739 mmHg 82%
    11:00 +1°C° 0.2 mm 8 m/s 740 mmHg 78%
    12:00 +2°C° 0.2 mm 8 m/s 740 mmHg 73%
    13:00 +2°C° 0.2 mm 8 m/s 741 mmHg 69%
    14:00 +3°C° 0.1 mm 7 m/s 741 mmHg 69%
    15:00 +3°C° 0.1 mm 7 m/s 741 mmHg 68%
    16:00 +3°C° 0.1 mm 6 m/s 742 mmHg 68%
    17:00 +3°C° 0.1 mm 6 m/s 743 mmHg 70%
    18:00 +2°C° 0.1 mm 5 m/s 743 mmHg 73%
    19:00 +1°C° 0.1 mm 4 m/s 744 mmHg 75%
    20:00 +1°C° 0 mm 4 m/s 745 mmHg 77%
    21:00 +1°C° 0 mm 4 m/s 745 mmHg 79%
    22:00 0°C° 0 mm 4 m/s 746 mmHg 81%
    23:00 0°C° 0.1 mm 4 m/s 746 mmHg 82%

    Demain, 27 Février, Jeudi

    Heure Température Précipitation Vent Pression Humidité
    00:00 0°C° 0.1 mm 5 m/s 747 mmHg 84%
    01:00 0°C° 0.1 mm 5 m/s 747 mmHg 86%
    02:00 0°C° 0.1 mm 5 m/s 747 mmHg 88%
    03:00 0°C° 0.1 mm 5 m/s 747 mmHg 89%
    04:00 0°C° 0.1 mm 5 m/s 747 mmHg 91%
    05:00 0°C° 0.1 mm 5 m/s 747 mmHg 91%
    06:00 0°C° 0.1 mm 4 m/s 747 mmHg 92%
    07:00 0°C° 0.1 mm 4 m/s 747 mmHg 92%
    08:00 0°C° 0 mm 4 m/s 746 mmHg 86%
    09:00 +1°C° 0 mm 4 m/s 745 mmHg 80%
    10:00 +2°C° 0 mm 5 m/s 745 mmHg 74%
    11:00 +2°C° 0 mm 5 m/s 743 mmHg 73%
    12:00 +2°C° 0 mm 5 m/s 742 mmHg 71%
    13:00 +3°C° 0 mm 6 m/s 741 mmHg 70%
    14:00 +3°C° 1.1 mm 6 m/s 739 mmHg 77%
    15:00 +2°C° 1.1 mm 7 m/s 737 mmHg 84%
    16:00 +2°C° 1.1 mm 7 m/s 735 mmHg 91%
    17:00 +4°C° 0.7 mm 8 m/s 734 mmHg 87%
    18:00 +5°C° 0.7 mm 9 m/s 733 mmHg 84%
    19:00 +6°C° 0.7 mm 11 m/s 732 mmHg 80%
    20:00 +5°C° 0.1 mm 10 m/s 734 mmHg 80%
    21:00 +2°C° 0.1 mm 10 m/s 737 mmHg 80%
    22:00 0°C° 0.1 mm 10 m/s 739 mmHg 80%
    23:00 0°C° 0.1 mm 9 m/s 741 mmHg 83%

    Après-demain, 28 Février, Vendredi

    Heure Température Précipitation Vent Pression Humidité
    00:00 0°C° 0.1 mm 8 m/s 744 mmHg 86%
    01:00 0°C° 0.1 mm 7 m/s 746 mmHg 89%
    02:00 +1°C° 0.2 mm 6 m/s 747 mmHg 87%
    03:00 +1°C° 0.2 mm 6 m/s 748 mmHg 85%
    04:00 +1°C° 0.2 mm 5 m/s 749 mmHg 83%
    05:00 0°C° 0 mm 5 m/s 750 mmHg 85%
    06:00 0°C° 0 mm 5 m/s 751 mmHg 86%
    07:00 -1°C° 0 mm 4 m/s 752 mmHg 88%
    08:00 0°C° 0 mm 4 m/s 752 mmHg 85%
    09:00 +1°C° 0 mm 4 m/s 753 mmHg 82%
    10:00 +3°C° 0 mm 4 m/s 753 mmHg 79%
    11:00 +3°C° 0 mm 4 m/s 753 mmHg 74%
    12:00 +4°C° 0 mm 4 m/s 753 mmHg 70%
    13:00 +5°C° 0 mm 3 m/s 753 mmHg 65%
    14:00 +5°C° 0 mm 3 m/s 752 mmHg 65%
    15:00 +5°C° 0 mm 3 m/s 751 mmHg 65%
    16:00 +6°C° 0 mm 2 m/s 751 mmHg 65%
    17:00 +6°C° 0 mm 2 m/s 750 mmHg 69%
    18:00 +5°C° 0 mm 2 m/s 750 mmHg 74%
    19:00 +5°C° 0 mm 2 m/s 750 mmHg 78%
    20:00 +5°C° 0.1 mm 2 m/s 749 mmHg 82%
    21:00 +4°C° 0.1 mm 2 m/s 749 mmHg 87%
    22:00 +4°C° 0.1 mm 2 m/s 748 mmHg 91%
    23:00 +5°C° 0.4 mm 2 m/s 748 mmHg 92%

    29 Février, Samedi

    Heure Température Précipitation Vent Pression Humidité
    00:00 +5°C° 0.4 mm 2 m/s 747 mmHg 93%
    01:00 +6°C° 0.4 mm 2 m/s 747 mmHg 94%
    02:00 +6°C° 0.4 mm 2 m/s 746 mmHg 94%
    03:00 +7°C° 0.4 mm 3 m/s 745 mmHg 94%
    04:00 +7°C° 0.4 mm 3 m/s 744 mmHg 94%
    05:00 +7°C° 0 mm 3 m/s 744 mmHg 93%
    06:00 +7°C° 0 mm 2 m/s 743 mmHg 93%
    07:00 +7°C° 0 mm 2 m/s 742 mmHg 92%
    08:00 +8°C° 0 mm 2 m/s 741 mmHg 89%
    09:00 +9°C° 0 mm 2 m/s 741 mmHg 86%
    10:00 +10°C° 0 mm 2 m/s 740 mmHg 82%
    11:00 +11°C° 0 mm 3 m/s 739 mmHg 77%
    12:00 +13°C° 0 mm 3 m/s 739 mmHg 72%
    13:00 +14°C° 0 mm 4 m/s 738 mmHg 67%
    14:00 +14°C° 0.2 mm 5 m/s 738 mmHg 69%
    15:00 +13°C° 0.2 mm 5 m/s 737 mmHg 72%
    16:00 +13°C° 0.2 mm 5 m/s 737 mmHg 74%
    17:00 +10°C° 1.8 mm 6 m/s 738 mmHg 77%
    18:00 +9°C° 1.8 mm 7 m/s 738 mmHg 79%
    19:00 +7°C° 1.8 mm 8 m/s 739 mmHg 81%
    20:00 +6°C° 0.1 mm 7 m/s 740 mmHg 80%
    21:00 +5°C° 0.1 mm 6 m/s 741 mmHg 79%
    22:00 +6°C° 0.1 mm 5 m/s 742 mmHg 77%
    23:00 +5°C° 0 mm 5 m/s 742 mmHg 78%

    1 Mars, Dimanche

    Heure Température Précipitation Vent Pression Humidité
    00:00 +3°C° 0 mm 5 m/s 742 mmHg 78%
    01:00 +4°C° 0 mm 4 m/s 743 mmHg 79%
    02:00 +4°C° 0 mm 4 m/s 743 mmHg 78%
    03:00 +3°C° 0 mm 4 m/s 743 mmHg 78%
    04:00 +3°C° 0 mm 4 m/s 742 mmHg 78%
    05:00 +2°C° 0 mm 5 m/s 743 mmHg 80%
    06:00 +2°C° 0 mm 5 m/s 743 mmHg 82%
    07:00 +2°C° 0 mm 5 m/s 743 mmHg 84%
    08:00 +3°C° 0.1 mm 5 m/s 743 mmHg 83%
    09:00 +3°C° 0.1 mm 5 m/s 743 mmHg 81%
    10:00 +5°C° 0.1 mm 5 m/s 743 mmHg 79%
    11:00 +4°C° 0.1 mm 6 m/s 743 mmHg 73%
    12:00 +5°C° 0.1 mm 6 m/s 743 mmHg 67%
    13:00 +7°C° 0.1 mm 6 m/s 742 mmHg 61%
    14:00 +8°C° 0 mm 6 m/s 742 mmHg 60%
    15:00 +8°C° 0 mm 6 m/s 741 mmHg 58%
    16:00 +8°C° 0 mm 6 m/s 741 mmHg 57%
    17:00 +7°C° 0 mm 5 m/s 741 mmHg 63%
    18:00 +6°C° 0 mm 4 m/s 741 mmHg 69%
    19:00 +5°C° 0 mm 3 m/s 741 mmHg 75%
    20:00 +6°C° 0 mm 2 m/s 741 mmHg 78%
    21:00 +6°C° 0 mm 2 m/s 741 mmHg 81%
    22:00 +7°C° 0 mm 1 m/s 740 mmHg 84%
    23:00 +6°C° 1.7 mm 2 m/s 740 mmHg 87%

    2 Mars, Lundi

    Heure Température Précipitation Vent Pression Humidité
    00:00 +6°C° 1.7 mm 2 m/s 740 mmHg 91%
    01:00 +5°C° 1.7 mm 2 m/s 740 mmHg 95%
    02:00 +5°C° 2.2 mm 2 m/s 740 mmHg 94%
    03:00 +4°C° 2.2 mm 3 m/s 741 mmHg 94%
    04:00 +4°C° 2.2 mm 3 m/s 741 mmHg 93%
    05:00 +4°C° 0.1 mm 4 m/s 741 mmHg 91%
    06:00 +4°C° 0.1 mm 4 m/s 741 mmHg 90%
    07:00 +4°C° 0.1 mm 4 m/s 741 mmHg 88%
    08:00 +5°C° 0 mm 4 m/s 740 mmHg 84%
    09:00 +6°C° 0 mm 4 m/s 740 mmHg 79%
    10:00 +7°C° 0 mm 4 m/s 740 mmHg 75%
    11:00 +8°C° 0 mm 4 m/s 739 mmHg 71%
    12:00 +9°C° 0 mm 3 m/s 738 mmHg 67%
    13:00 +10°C° 0 mm 3 m/s 738 mmHg 64%
    14:00 +10°C° 0 mm 2 m/s 738 mmHg 65%
    15:00 +12°C° 0 mm 2 m/s 737 mmHg 65%
    16:00 +12°C° 0 mm 1 m/s 737 mmHg 66%
    17:00 +10°C° 0 mm 0 m/s 737 mmHg 70%
    18:00 +9°C° 0 mm 0 m/s 737 mmHg 74%
    19:00 +8°C° 0 mm 0 m/s 737 mmHg 78%
    20:00 +8°C° 0 mm 0 m/s 738 mmHg 80%
    21:00 +7°C° 0 mm 0 m/s 738 mmHg 81%
    22:00 +8°C° 0 mm 1 m/s 739 mmHg 83%
    23:00 +8°C° 0.1 mm 1 m/s 739 mmHg 84%
    Voir plus